Time,TemperatureF,DewpointF,PressureIn,WindDirection,WindDirectionDegrees,WindSpeedMPH,WindSpeedGustMPH,Humidity,HourlyPrecipIn,Conditions,Clouds,dailyrainin,SoftwareType,DateUTC
2013-01-25 00:03:00,8.0,2.0,30.53,NNW,344,0.0,-999.0,77,-99.99,,,-99.99,,2013-01-25 05:03:00,
2013-01-25 00:12:00,9.0,4.0,30.53,NNW,344,0.0,-999.0,78,-99.99,,,-99.99,,2013-01-25 05:12:00,
2013-01-25 00:22:00,9.0,4.0,30.53,NNW,344,0.0,-999.0,78,-99.99,,,-99.99,,2013-01-25 05:22:00,
2013-01-25 00:32:00,9.0,4.0,30.52,NNW,344,0.0,-999.0,78,-99.99,,,-99.99,,2013-01-25 05:32:00,
2013-01-25 00:43:00,9.0,4.0,30.52,NNW,344,0.0,-999.0,78,-99.99,,,-99.99,,2013-01-25 05:43:00,
2013-01-25 00:52:00,9.0,4.0,30.52,NNW,344,0.0,-999.0,78,-99.99,,,-99.99,,2013-01-25 05:52:00,
2013-01-25 01:02:00,9.0,4.0,30.50,NNW,344,0.0,-999.0,78,-99.99,,,-99.99,,2013-01-25 06:02:00,
2013-01-25 01:11:00,9.0,4.0,30.50,NNW,344,0.0,-999.0,78,-99.99,,,-99.99,,2013-01-25 06:11:00,
2013-01-25 01:22:00,9.0,4.0,30.49,NNW,344,0.0,-999.0,79,-99.99,,,-99.99,,2013-01-25 06:22:00,
2013-01-25 01:32:00,9.0,4.0,30.47,NNW,344,0.0,-999.0,79,-99.99,,,-99.99,,2013-01-25 06:32:00,
2013-01-25 01:42:00,9.0,4.0,30.47,NNW,344,0.0,-999.0,79,-99.99,,,-99.99,,2013-01-25 06:42:00,
2013-01-25 01:52:00,9.0,4.0,30.47,NNW,344,0.0,-999.0,80,-99.99,,,-99.99,,2013-01-25 06:52:00,
2013-01-25 02:02:00,9.0,4.0,30.48,NNW,344,0.0,-999.0,80,-99.99,,,-99.99,,2013-01-25 07:02:00,
2013-01-25 02:11:00,9.0,4.0,30.48,NNW,344,0.0,-999.0,80,-99.99,,,-99.99,,2013-01-25 07:11:00,
2013-01-25 02:22:00,8.0,3.0,30.47,NNW,344,0.0,-999.0,80,-99.99,,,-99.99,,2013-01-25 07:22:00,
2013-01-25 02:32:00,9.0,4.0,30.48,NNW,344,0.0,-999.0,80,-99.99,,,-99.99,,2013-01-25 07:32:00,
2013-01-25 02:42:00,9.0,4.0,30.48,NNW,344,0.0,-999.0,80,-99.99,,,-99.99,,2013-01-25 07:42:00,
2013-01-25 02:51:00,9.0,4.0,30.48,NNW,344,0.0,-999.0,80,-99.99,,,-99.99,,2013-01-25 07:51:00,
2013-01-25 03:02:00,9.0,4.0,30.48,NNW,344,0.0,-999.0,79,-99.99,,,-99.99,,2013-01-25 08:02:00,
2013-01-25 03:12:00,10.0,5.0,30.47,NNW,344,0.0,-999.0,80,-99.99,,,-99.99,,2013-01-25 08:12:00,
2013-01-25 03:21:00,10.0,5.0,30.47,NNW,344,0.0,-999.0,80,-99.99,,,-99.99,,2013-01-25 08:21:00,
2013-01-25 03:32:00,10.0,5.0,30.47,NNW,344,0.0,-999.0,78,-99.99,,,-99.99,,2013-01-25 08:32:00,
2013-01-25 03:42:00,10.0,5.0,30.47,NNW,344,0.0,-999.0,78,-99.99,,,-99.99,,2013-01-25 08:42:00,
2013-01-25 03:52:00,10.0,5.0,30.46,NNW,344,0.0,-999.0,79,-99.99,,,-99.99,,2013-01-25 08:52:00,
2013-01-25 04:02:00,10.0,5.0,30.45,NNW,344,0.0,-999.0,78,-99.99,,,-99.99,,2013-01-25 09:02:00,
2013-01-25 04:11:00,10.0,5.0,30.45,NNW,344,0.0,-999.0,78,-99.99,,,-99.99,,2013-01-25 09:11:00,
2013-01-25 04:21:00,10.0,5.0,30.44,NNW,346,0.0,-999.0,78,-99.99,,,-99.99,,2013-01-25 09:21:00,
2013-01-25 04:32:00,10.0,5.0,30.44,NNE,15,0.0,-999.0,79,-99.99,,,-99.99,,2013-01-25 09:32:00,
2013-01-25 04:42:00,10.0,5.0,30.44,NNE,15,0.0,-999.0,79,-99.99,,,-99.99,,2013-01-25 09:42:00,
2013-01-25 04:51:00,10.0,5.0,30.44,NNE,15,0.0,-999.0,80,-99.99,,,-99.99,,2013-01-25 09:51:00,
2013-01-25 05:02:00,10.0,5.0,30.44,NNE,15,0.0,-999.0,80,-99.99,,,-99.99,,2013-01-25 10:02:00,
2013-01-25 05:12:00,10.0,5.0,30.44,NNE,15,0.0,-999.0,80,-99.99,,,-99.99,,2013-01-25 10:12:00,
2013-01-25 05:22:00,10.0,5.0,30.43,NNE,23,0.0,-999.0,80,-99.99,,,-99.99,,2013-01-25 10:22:00,
2013-01-25 05:32:00,10.0,5.0,30.43,NNE,24,0.0,-999.0,81,-99.99,,,-99.99,,2013-01-25 10:32:00,
2013-01-25 05:42:00,10.0,5.0,30.43,NNE,24,0.0,-999.0,81,-99.99,,,-99.99,,2013-01-25 10:42:00,
2013-01-25 05:51:00,10.0,5.0,30.41,NE,47,0.0,-999.0,81,-99.99,,,-99.99,,2013-01-25 10:51:00,
2013-01-25 06:03:00,10.0,5.0,30.41,NE,47,0.0,-999.0,81,-99.99,,,-99.99,,2013-01-25 11:03:00,
2013-01-25 06:11:00,10.0,5.0,30.41,NE,47,0.0,-999.0,81,-99.99,,,-99.99,,2013-01-25 11:11:00,
2013-01-25 06:22:00,10.0,5.0,30.40,ENE,65,0.0,-999.0,81,-99.99,,,-99.99,,2013-01-25 11:22:00,
2013-01-25 06:33:00,10.0,5.0,30.38,ENE,66,0.0,-999.0,81,-99.99,,,-99.99,,2013-01-25 11:33:00,
2013-01-25 06:42:00,10.0,5.0,30.38,ENE,66,0.0,-999.0,81,-99.99,,,-99.99,,2013-01-25 11:42:00,
2013-01-25 06:52:00,10.0,5.0,30.37,ENE,76,1.0,-999.0,81,-99.99,,,-99.99,,2013-01-25 11:52:00,
2013-01-25 07:03:00,10.0,6.0,30.37,ENE,76,0.0,-999.0,82,-99.99,,,-99.99,,2013-01-25 12:03:00,
2013-01-25 07:12:00,10.0,6.0,30.37,ENE,76,0.0,-999.0,82,-99.99,,,-99.99,,2013-01-25 12:12:00,
2013-01-25 07:22:00,10.0,6.0,30.36,ENE,76,0.0,-999.0,82,-99.99,,,-99.99,,2013-01-25 12:22:00,
2013-01-25 07:32:00,10.0,6.0,30.35,ENE,78,0.0,-999.0,82,-99.99,,,-99.99,,2013-01-25 12:32:00,
2013-01-25 07:42:00,10.0,6.0,30.35,ENE,78,0.0,-999.0,82,-99.99,,,-99.99,,2013-01-25 12:42:00,
2013-01-25 07:53:00,11.0,7.0,30.34,ENE,78,1.0,-999.0,82,-99.99,,,-99.99,,2013-01-25 12:53:00,
2013-01-25 08:03:00,11.0,7.0,30.32,East,96,1.0,-999.0,82,-99.99,,,-99.99,,2013-01-25 13:03:00,
2013-01-25 08:12:00,11.0,7.0,30.32,East,96,1.0,-999.0,82,-99.99,,,-99.99,,2013-01-25 13:12:00,
2013-01-25 08:22:00,11.0,6.0,30.31,SE,130,1.0,-999.0,81,-99.99,,,-99.99,,2013-01-25 13:22:00,
2013-01-25 08:33:00,11.0,6.0,30.29,East,87,1.0,-999.0,80,-99.99,,,-99.99,,2013-01-25 13:33:00,
2013-01-25 08:43:00,11.0,6.0,30.29,East,87,1.0,-999.0,80,-99.99,,,-99.99,,2013-01-25 13:43:00,
2013-01-25 08:52:00,11.0,6.0,30.28,East,92,1.0,-999.0,79,-99.99,,,-99.99,,2013-01-25 13:52:00,
2013-01-25 09:03:00,12.0,6.0,30.28,ESE,109,2.0,-999.0,78,-99.99,,,-99.99,,2013-01-25 14:03:00,
2013-01-25 09:12:00,12.0,6.0,30.28,ESE,109,2.0,-999.0,78,-99.99,,,-99.99,,2013-01-25 14:12:00,
2013-01-25 09:23:00,12.0,6.0,30.27,East,90,2.0,-999.0,77,-99.99,,,-99.99,,2013-01-25 14:23:00,
2013-01-25 09:33:00,12.0,6.0,30.28,ESE,109,1.0,-999.0,77,-99.99,,,-99.99,,2013-01-25 14:33:00,
2013-01-25 09:42:00,12.0,6.0,30.28,ESE,109,1.0,-999.0,77,-99.99,,,-99.99,,2013-01-25 14:42:00,
2013-01-25 09:53:00,12.0,6.0,30.27,ENE,68,2.0,-999.0,76,-99.99,,,-99.99,,2013-01-25 14:53:00,
2013-01-25 10:03:00,13.0,6.0,30.28,East,97,2.0,-999.0,74,-99.99,,,-99.99,,2013-01-25 15:03:00,
2013-01-25 10:12:00,13.0,6.0,30.28,East,97,2.0,-999.0,74,-99.99,,,-99.99,,2013-01-25 15:12:00,
2013-01-25 10:22:00,13.0,6.0,30.27,ESE,114,2.0,-999.0,73,-99.99,,,-99.99,,2013-01-25 15:22:00,
2013-01-25 10:33:00,13.0,6.0,30.27,ENE,74,2.0,-999.0,72,-99.99,,,-99.99,,2013-01-25 15:33:00,
2013-01-25 10:42:00,13.0,6.0,30.27,ENE,74,2.0,-999.0,72,-99.99,,,-99.99,,2013-01-25 15:42:00,
2013-01-25 10:53:00,13.0,7.0,30.26,East,85,2.0,-999.0,75,-99.99,,,-99.99,,2013-01-25 15:53:00,
2013-01-25 11:03:00,13.0,7.0,30.24,ENE,77,2.0,-999.0,78,-99.99,,,-99.99,,2013-01-25 16:03:00,
2013-01-25 11:12:00,13.0,7.0,30.24,ENE,77,2.0,-999.0,78,-99.99,,,-99.99,,2013-01-25 16:12:00,
2013-01-25 11:23:00,13.0,8.0,30.23,ESE,109,1.0,-999.0,81,-99.99,,,-99.99,,2013-01-25 16:23:00,
2013-01-25 11:33:00,13.0,9.0,30.22,ENE,74,2.0,-999.0,83,-99.99,,,-99.99,,2013-01-25 16:33:00,
2013-01-25 11:43:00,13.0,9.0,30.22,ENE,74,2.0,-999.0,83,-99.99,,,-99.99,,2013-01-25 16:43:00,
2013-01-25 11:53:00,13.0,10.0,30.19,ENE,63,1.0,-999.0,86,-99.99,,,-99.99,,2013-01-25 16:53:00,
2013-01-25 12:03:00,13.0,10.0,30.18,ENE,65,2.0,-999.0,87,-99.99,,,-99.99,,2013-01-25 17:03:00,
2013-01-25 12:12:00,13.0,10.0,30.18,ENE,65,2.0,-999.0,87,-99.99,,,-99.99,,2013-01-25 17:12:00,
2013-01-25 12:22:00,13.0,10.0,30.16,NE,47,2.0,-999.0,88,-99.99,,,-99.99,,2013-01-25 17:22:00,
2013-01-25 12:33:00,13.0,10.0,30.16,ENE,60,1.0,-999.0,89,-99.99,,,-99.99,,2013-01-25 17:33:00,
2013-01-25 12:43:00,13.0,10.0,30.16,ENE,60,1.0,-999.0,89,-99.99,,,-99.99,,2013-01-25 17:43:00,
2013-01-25 12:53:00,13.0,10.0,30.16,ENE,60,1.0,-999.0,89,-99.99,,,-99.99,,2013-01-25 17:53:00,
2013-01-25 13:03:00,13.0,10.0,30.14,East,92,1.0,-999.0,89,-99.99,,,-99.99,,2013-01-25 18:03:00,
2013-01-25 13:12:00,13.0,10.0,30.14,East,92,1.0,-999.0,89,-99.99,,,-99.99,,2013-01-25 18:12:00,
2013-01-25 13:24:00,14.0,11.0,30.12,East,100,2.0,-999.0,89,-99.99,,,-99.99,,2013-01-25 18:24:00,
2013-01-25 13:33:00,14.0,12.0,30.11,East,84,1.0,-999.0,90,-99.99,,,-99.99,,2013-01-25 18:33:00,
2013-01-25 13:42:00,14.0,12.0,30.11,East,84,1.0,-999.0,90,-99.99,,,-99.99,,2013-01-25 18:42:00,
2013-01-25 13:53:00,14.0,12.0,30.10,NE,53,1.0,-999.0,90,-99.99,,,-99.99,,2013-01-25 18:53:00,
2013-01-25 14:03:00,14.0,12.0,30.09,ENE,61,2.0,-999.0,90,-99.99,,,-99.99,,2013-01-25 19:03:00,
2013-01-25 14:12:00,14.0,12.0,30.09,ENE,61,2.0,-999.0,90,-99.99,,,-99.99,,2013-01-25 19:12:00,
2013-01-25 14:22:00,14.0,12.0,30.09,ENE,58,1.0,-999.0,90,-99.99,,,-99.99,,2013-01-25 19:22:00,
2013-01-25 14:33:00,15.0,13.0,30.08,ENE,65,0.0,-999.0,90,-99.99,,,-99.99,,2013-01-25 19:33:00,
2013-01-25 14:42:00,15.0,13.0,30.08,ENE,65,0.0,-999.0,90,-99.99,,,-99.99,,2013-01-25 19:42:00,
2013-01-25 14:53:00,15.0,13.0,30.08,ENE,67,1.0,-999.0,90,-99.99,,,-99.99,,2013-01-25 19:53:00,
2013-01-25 15:03:00,16.0,14.0,30.07,ENE,69,1.0,-999.0,90,-99.99,,,-99.99,,2013-01-25 20:03:00,
2013-01-25 15:12:00,16.0,14.0,30.07,ENE,69,1.0,-999.0,90,-99.99,,,-99.99,,2013-01-25 20:12:00,
2013-01-25 15:23:00,16.0,14.0,30.06,ENE,71,0.0,-999.0,90,-99.99,,,-99.99,,2013-01-25 20:23:00,
2013-01-25 15:32:00,16.0,14.0,30.06,ENE,71,0.0,-999.0,90,-99.99,,,-99.99,,2013-01-25 20:32:00,
2013-01-25 15:42:00,16.0,14.0,30.06,ENE,71,0.0,-999.0,90,-99.99,,,-99.99,,2013-01-25 20:42:00,
2013-01-25 15:53:00,16.0,14.0,30.06,ENE,69,0.0,-999.0,90,-99.99,,,-99.99,,2013-01-25 20:53:00,
2013-01-25 16:02:00,17.0,15.0,30.06,ENE,69,0.0,-999.0,90,-99.99,,,-99.99,,2013-01-25 21:02:00,
2013-01-25 16:12:00,17.0,15.0,30.06,ENE,69,0.0,-999.0,90,-99.99,,,-99.99,,2013-01-25 21:12:00,
2013-01-25 16:23:00,17.0,15.0,30.05,ENE,69,0.0,-999.0,90,-99.99,,,-99.99,,2013-01-25 21:23:00,
2013-01-25 16:33:00,17.0,15.0,30.05,ENE,69,0.0,-999.0,90,-99.99,,,-99.99,,2013-01-25 21:33:00,
2013-01-25 16:42:00,17.0,15.0,30.05,ENE,69,0.0,-999.0,90,-99.99,,,-99.99,,2013-01-25 21:42:00,
2013-01-25 16:52:00,17.0,14.0,30.05,ENE,70,0.0,-999.0,89,-99.99,,,-99.99,,2013-01-25 21:52:00,
2013-01-25 17:03:00,17.0,14.0,30.04,ENE,70,0.0,-999.0,89,-99.99,,,-99.99,,2013-01-25 22:03:00,
2013-01-25 17:12:00,17.0,14.0,30.04,ENE,70,0.0,-999.0,89,-99.99,,,-99.99,,2013-01-25 22:12:00,
2013-01-25 17:23:00,17.0,14.0,30.04,ENE,70,0.0,-999.0,89,-99.99,,,-99.99,,2013-01-25 22:23:00,
2013-01-25 17:33:00,17.0,14.0,30.03,ENE,70,0.0,-999.0,89,-99.99,,,-99.99,,2013-01-25 22:33:00,
2013-01-25 17:42:00,17.0,14.0,30.03,ENE,70,0.0,-999.0,89,-99.99,,,-99.99,,2013-01-25 22:42:00,
2013-01-25 17:53:00,16.0,13.0,30.03,ENE,70,0.0,-999.0,89,-99.99,,,-99.99,,2013-01-25 22:53:00,
2013-01-25 18:02:00,16.0,14.0,30.03,ENE,70,0.0,-999.0,90,-99.99,,,-99.99,,2013-01-25 23:02:00,
2013-01-25 18:12:00,16.0,14.0,30.03,ENE,70,0.0,-999.0,90,-99.99,,,-99.99,,2013-01-25 23:12:00,
2013-01-25 18:22:00,16.0,14.0,30.04,ENE,70,0.0,-999.0,90,-99.99,,,-99.99,,2013-01-25 23:22:00,
2013-01-25 18:32:00,16.0,14.0,30.04,ENE,70,0.0,-999.0,91,-99.99,,,-99.99,,2013-01-25 23:32:00,
2013-01-25 18:42:00,16.0,14.0,30.04,ENE,70,0.0,-999.0,91,-99.99,,,-99.99,,2013-01-25 23:42:00,
2013-01-25 18:53:00,16.0,14.0,30.04,ENE,70,0.0,-999.0,91,-99.99,,,-99.99,,2013-01-25 23:53:00,
2013-01-25 19:02:00,16.0,14.0,30.06,ENE,70,0.0,-999.0,91,-99.99,,,-99.99,,2013-01-26 00:02:00,
2013-01-25 19:11:00,16.0,14.0,30.06,ENE,70,0.0,-999.0,91,-99.99,,,-99.99,,2013-01-26 00:11:00,
2013-01-25 19:22:00,16.0,14.0,30.06,ENE,70,0.0,-999.0,91,-99.99,,,-99.99,,2013-01-26 00:22:00,
2013-01-25 19:32:00,16.0,14.0,30.05,ENE,70,0.0,-999.0,91,-99.99,,,-99.99,,2013-01-26 00:32:00,
2013-01-25 19:42:00,16.0,14.0,30.05,ENE,70,0.0,-999.0,91,-99.99,,,-99.99,,2013-01-26 00:42:00,
2013-01-25 19:53:00,16.0,14.0,30.05,ENE,70,0.0,-999.0,92,-99.99,,,-99.99,,2013-01-26 00:53:00,
2013-01-25 20:02:00,16.0,14.0,30.05,ENE,70,0.0,-999.0,92,-99.99,,,-99.99,,2013-01-26 01:02:00,
2013-01-25 20:12:00,16.0,14.0,30.05,ENE,70,0.0,-999.0,92,-99.99,,,-99.99,,2013-01-26 01:12:00,
2013-01-25 20:22:00,16.0,14.0,30.05,ENE,70,0.0,-999.0,92,-99.99,,,-99.99,,2013-01-26 01:22:00,
2013-01-25 20:32:00,16.0,14.0,30.05,ENE,70,0.0,-999.0,92,-99.99,,,-99.99,,2013-01-26 01:32:00,
2013-01-25 20:42:00,16.0,14.0,30.05,ENE,70,0.0,-999.0,92,-99.99,,,-99.99,,2013-01-26 01:42:00,
2013-01-25 20:52:00,16.0,14.0,30.05,ENE,70,0.0,-999.0,92,-99.99,,,-99.99,,2013-01-26 01:52:00,
2013-01-25 21:02:00,16.0,14.0,30.05,ENE,70,0.0,-999.0,92,-99.99,,,-99.99,,2013-01-26 02:02:00,
2013-01-25 21:11:00,16.0,14.0,30.05,ENE,70,0.0,-999.0,92,-99.99,,,-99.99,,2013-01-26 02:11:00,
2013-01-25 21:22:00,16.0,14.0,30.05,ENE,70,0.0,-999.0,92,-99.99,,,-99.99,,2013-01-26 02:22:00,
2013-01-25 21:32:00,16.0,14.0,30.05,ENE,70,0.0,-999.0,92,-99.99,,,-99.99,,2013-01-26 02:32:00,
2013-01-25 21:42:00,16.0,14.0,30.05,ENE,70,0.0,-999.0,92,-99.99,,,-99.99,,2013-01-26 02:42:00,
2013-01-25 21:52:00,16.0,14.0,30.06,ENE,70,0.0,-999.0,92,-99.99,,,-99.99,,2013-01-26 02:52:00,
2013-01-25 22:02:00,16.0,14.0,30.06,East,90,0.0,-999.0,92,-99.99,,,-99.99,,2013-01-26 03:02:00,
2013-01-25 22:12:00,16.0,14.0,30.06,East,90,0.0,-999.0,92,-99.99,,,-99.99,,2013-01-26 03:12:00,
2013-01-25 22:22:00,16.0,14.0,30.06,SSW,213,1.0,-999.0,92,-99.99,,,-99.99,,2013-01-26 03:22:00,
2013-01-25 22:32:00,16.0,14.0,30.07,SSW,204,2.0,-999.0,92,-99.99,,,-99.99,,2013-01-26 03:32:00,
2013-01-25 22:43:00,16.0,14.0,30.07,SSW,204,2.0,-999.0,92,-99.99,,,-99.99,,2013-01-26 03:43:00,
2013-01-25 22:52:00,16.0,14.0,30.07,SW,214,3.0,-999.0,92,-99.99,,,-99.99,,2013-01-26 03:52:00,
2013-01-25 23:02:00,16.0,14.0,30.08,SSW,199,2.0,-999.0,92,-99.99,,,-99.99,,2013-01-26 04:02:00,
2013-01-25 23:12:00,16.0,14.0,30.08,SSW,199,2.0,-999.0,92,-99.99,,,-99.99,,2013-01-26 04:12:00,
2013-01-25 23:21:00,16.0,14.0,30.08,SSW,213,2.0,-999.0,92,-99.99,,,-99.99,,2013-01-26 04:21:00,
2013-01-25 23:32:00,16.0,14.0,30.09,SSE,159,1.0,-999.0,92,-99.99,,,-99.99,,2013-01-26 04:32:00,
2013-01-25 23:42:00,16.0,14.0,30.09,SSE,159,1.0,-999.0,92,-99.99,,,-99.99,,2013-01-26 04:42:00,
2013-01-25 23:52:00,17.0,15.0,30.09,SSW,205,1.0,-999.0,92,-99.99,,,-99.99,,2013-01-26 04:52:00,